Regional Weather Roundup
Issued by NWS Green Bay, WI

Home | Current Version | Previous Version | Text Only | Print | Product List | Glossary On
Versions: 1 2 3 4 5 6 7 8 9 10 11 12 13 14 15 16 17 18 19 20 21 22 23 24 25 26 27 28 29 30 31 32 33 34 35 36 37 38 39 40 41 42 43 44 45 46 47 48 49 50
000
ASUS43 KGRB 211111
RWRGRB

NORTH-CENTRAL AND NORTHEAST WISCONSIN REGIONAL WEATHER ROUNDUP
NATIONAL WEATHER SERVICE GREEN BAY WI
500 AM CST TUE FEB 21 2017

WIZ005-009-010>012-018-019-211200-
NORTH CENTRAL WISCONSIN

CITY           SKY/WX    TMP DP  RH WIND       PRES   REMARKS
IRONWOOD       PTCLDY    38  37  97 W12       29.77R
MANITOWISH WTR MOCLDY    38  38 100 W9G20     29.78R
ARBOR VITAE    MOCLDY    42  40  95 W7        29.78S
EAGLE RIVER    CLOUDY    42  41  97 W9        29.77R
LAND O LAKES   MOCLDY    42  41  95 W9        29.77R
RHINELANDER    MOCLDY    43  41  93 W15       29.79R
PHILLIPS       MOCLDY    38  37  99 CALM      29.81R
ANTIGO         CLOUDY    42  42 100 W9        29.81R
TOMAHAWK       MOCLDY    41  39  92 W7        29.81S
MERRILL        NOT AVBL
$$

WIZ013-073-211200-
NORTHEAST WISCONSIN

CITY           SKY/WX    TMP DP  RH WIND       PRES   REMARKS
IRON MOUNTAIN  CLEAR     49  44  83 W8        29.72R
MARINETTE      CLOUDY    50  49  96 SW6       29.78R FOG
OCONTO         CLOUDY    52  49  91 W12       29.79R
$$

WIZ017-030-035>037-045-211200-
CENTRAL WISCONSIN

CITY           SKY/WX    TMP DP  RH WIND       PRES   REMARKS
MEDFORD        CLOUDY    39  37  94 W9        29.84R
WAUSAU         CLOUDY    43  41  93 W12       29.82R
MOSINEE        CLOUDY    43  43 100 W7        29.85R
MARSHFIELD     CLOUDY    41  38  89 NW15G21   29.85R
WISC RAPIDS    CLOUDY    46  44  93 W7        29.87R
STEVENS POINT  CLOUDY    43  41  93 W7        29.86R
WAUPACA        MOCLDY    50  46  85 W10G17    29.85R
SHAWANO        CLOUDY    51  48  89 W10G17    29.82R
CLINTONVILLE   CLOUDY    48  45  87 W10       29.83R
WAUTOMA        CLOUDY    48  44  86 W16       29.88R
$$

WIZ038-039-048-051-211200-
FOX VALLEY

CITY           SKY/WX    TMP DP  RH WIND       PRES   REMARKS
NWS GREEN BAY  CLOUDY    52  49  89 W18       29.81R
APPLETON       CLOUDY    48  46  93 W14G21    29.82R
OSHKOSH        CLOUDY    50  46  86 W12       29.85R
FOND DU LAC    CLOUDY    52  46  80 W20G30    29.85R
$$

WIZ022-050-052-211200-
EAST CENTRAL WISCONSIN

CITY           SKY/WX    TMP DP  RH WIND       PRES   REMARKS
EPHRAIM        CLOUDY    52  51  99 SW9G24    29.76R
WASHINGTON ISL CLOUDY    40  39  95 S3        29.75R FOG
STURGEON BAY   CLOUDY    49  48  97 SW12      29.78R
MANITOWOC      CLOUDY    45  44  97 MISG      29.82R FOG
SHEBOYGAN      CLOUDY    50  49  96 SW7       29.83R FOG
$$

LMZ563-521-522-541>543-211200-
LAKESHORE

STATION/POSITION TIME  TEMP    WIND        PRES    VSBY  WAVE
                       AIR SEA DIR/SP/G                  HT/PER
                 (UTC) (F)     (DEG/KT/KT) (MB)    (MI)  (FT/S)
SHEBOYGAN LKSHOR 1100   42     170/ 10/ 11 1010.3R
KEWAUNEE LKSHORE 1048   39     190/  8/  9 1008.6R
NORTHPORT PIER   1040   44      CALM  /  6 1007.8R
SISTER BAY LKSHO 1005   45     180/ 17/ 20   N/A
CHAMBERS ISLAND  1040   44     180/  7/ 14 1007.8R
MENOMINEE LKSHOR 1048   47     190/  7/  8 1007.4R
$$




USA.gov is the U.S. government's official web portal to all federal, state and local government web resources and services.